When you browse on this site, cookies collect data to enhance your experience and personalize the content and advertising you see.
Visit our Privacy Policy to learn more. By continuing to use the site, you agree to this use of cookies and data.
  • en Suisse
  • Liste des pays
  • À 7 jours
  • Température de l'eau
  • Carte météo
  • Widgets météo
  • user-avatar
    Se connecter

    Météo par heure à Zelenaya Gorka

    Ce jour, 26 Août, Lundi

    Heure Température Précipitation Vent Pression Humidité
    00:00 +13°C° 0 mm 2 m/s 753 mmHg 90%
    01:00 +12°C° 0 mm 2 m/s 753 mmHg 92%
    02:00 +12°C° 0 mm 2 m/s 753 mmHg 93%
    03:00 +12°C° 0 mm 1 m/s 753 mmHg 94%
    04:00 +11°C° 0 mm 1 m/s 753 mmHg 94%
    05:00 +11°C° 0 mm 1 m/s 753 mmHg 94%
    06:00 +13°C° 0 mm 1 m/s 753 mmHg 88%
    07:00 +15°C° 0 mm 1 m/s 753 mmHg 81%
    08:00 +16°C° 0 mm 0 m/s 754 mmHg 75%
    09:00 +19°C° 0 mm 1 m/s 753 mmHg 70%
    10:00 +20°C° 0 mm 1 m/s 753 mmHg 65%
    11:00 +22°C° 0 mm 1 m/s 753 mmHg 61%
    12:00 +22°C° 0 mm 1 m/s 752 mmHg 59%
    13:00 +21°C° 0 mm 2 m/s 752 mmHg 57%
    14:00 +23°C° 0 mm 2 m/s 752 mmHg 55%
    15:00 +21°C° 0 mm 2 m/s 751 mmHg 59%
    16:00 +21°C° 0 mm 2 m/s 751 mmHg 64%
    17:00 +21°C° 0 mm 2 m/s 750 mmHg 68%
    18:00 +19°C° 0 mm 2 m/s 750 mmHg 72%
    19:00 +17°C° 0 mm 2 m/s 750 mmHg 76%
    20:00 +16°C° 0 mm 2 m/s 750 mmHg 80%
    21:00 +15°C° 0 mm 2 m/s 750 mmHg 82%
    22:00 +15°C° 0 mm 2 m/s 749 mmHg 83%
    23:00 +15°C° 0 mm 2 m/s 749 mmHg 84%

    Demain, 27 Août, Mardi

    Heure Température Précipitation Vent Pression Humidité
    00:00 +15°C° 0 mm 2 m/s 749 mmHg 85%
    01:00 +13°C° 0 mm 3 m/s 748 mmHg 86%
    02:00 +13°C° 0 mm 3 m/s 748 mmHg 87%
    03:00 +13°C° 0 mm 3 m/s 748 mmHg 87%
    04:00 +14°C° 0 mm 3 m/s 747 mmHg 87%
    05:00 +14°C° 0 mm 4 m/s 747 mmHg 87%
    06:00 +15°C° 0.1 mm 4 m/s 747 mmHg 86%
    07:00 +17°C° 0.1 mm 4 m/s 747 mmHg 85%
    08:00 +17°C° 0.1 mm 5 m/s 747 mmHg 84%
    09:00 +19°C° 0.2 mm 5 m/s 747 mmHg 78%
    10:00 +20°C° 0.2 mm 5 m/s 746 mmHg 73%
    11:00 +21°C° 0.2 mm 5 m/s 746 mmHg 68%
    12:00 +22°C° 0.1 mm 6 m/s 746 mmHg 65%
    13:00 +22°C° 0.1 mm 6 m/s 746 mmHg 61%
    14:00 +22°C° 0.1 mm 6 m/s 746 mmHg 57%
    15:00 +22°C° 0 mm 5 m/s 746 mmHg 60%
    16:00 +21°C° 0 mm 4 m/s 746 mmHg 63%
    17:00 +20°C° 0 mm 4 m/s 746 mmHg 66%
    18:00 +18°C° 0 mm 4 m/s 747 mmHg 69%
    19:00 +17°C° 0 mm 3 m/s 747 mmHg 71%
    20:00 +14°C° 0 mm 3 m/s 747 mmHg 74%
    21:00 +14°C° 0 mm 3 m/s 747 mmHg 78%
    22:00 +13°C° 0 mm 3 m/s 748 mmHg 82%
    23:00 +12°C° 0 mm 3 m/s 748 mmHg 87%

    Après-demain, 28 Août, Mercredi

    Heure Température Précipitation Vent Pression Humidité
    00:00 +11°C° 0 mm 3 m/s 748 mmHg 88%
    01:00 +12°C° 0 mm 2 m/s 748 mmHg 90%
    02:00 +10°C° 0 mm 2 m/s 748 mmHg 92%
    03:00 +9°C° 0 mm 3 m/s 749 mmHg 92%
    04:00 +9°C° 0 mm 3 m/s 749 mmHg 92%
    05:00 +9°C° 0 mm 3 m/s 749 mmHg 92%
    06:00 +10°C° 0 mm 3 m/s 749 mmHg 85%
    07:00 +11°C° 0 mm 4 m/s 750 mmHg 79%
    08:00 +13°C° 0 mm 5 m/s 750 mmHg 72%
    09:00 +14°C° 0 mm 5 m/s 750 mmHg 66%
    10:00 +14°C° 0 mm 5 m/s 750 mmHg 61%
    11:00 +15°C° 0 mm 5 m/s 750 mmHg 55%
    12:00 +16°C° 0 mm 5 m/s 750 mmHg 52%
    13:00 +16°C° 0 mm 5 m/s 750 mmHg 49%
    14:00 +17°C° 0 mm 4 m/s 750 mmHg 47%
    15:00 +17°C° 0 mm 4 m/s 750 mmHg 51%
    16:00 +16°C° 0 mm 3 m/s 750 mmHg 55%
    17:00 +16°C° 0 mm 3 m/s 750 mmHg 59%
    18:00 +14°C° 0 mm 2 m/s 750 mmHg 62%
    19:00 +12°C° 0 mm 2 m/s 751 mmHg 65%
    20:00 +9°C° 0 mm 2 m/s 751 mmHg 68%
    21:00 +9°C° 0 mm 2 m/s 751 mmHg 69%
    22:00 +8°C° 0 mm 2 m/s 751 mmHg 71%
    23:00 +7°C° 0 mm 2 m/s 751 mmHg 72%

    29 Août, Jeudi

    Heure Température Précipitation Vent Pression Humidité
    00:00 +7°C° 0 mm 2 m/s 752 mmHg 73%
    01:00 +7°C° 0 mm 1 m/s 752 mmHg 75%
    02:00 +7°C° 0 mm 1 m/s 752 mmHg 76%
    03:00 +7°C° 0 mm 1 m/s 752 mmHg 76%
    04:00 +7°C° 0 mm 1 m/s 752 mmHg 77%
    05:00 +7°C° 0 mm 1 m/s 752 mmHg 77%
    06:00 +9°C° 0 mm 1 m/s 752 mmHg 72%
    07:00 +10°C° 0 mm 2 m/s 752 mmHg 66%
    08:00 +12°C° 0 mm 2 m/s 752 mmHg 61%
    09:00 +14°C° 0 mm 2 m/s 752 mmHg 57%
    10:00 +15°C° 0 mm 2 m/s 752 mmHg 53%
    11:00 +17°C° 0 mm 2 m/s 752 mmHg 49%
    12:00 +18°C° 0 mm 2 m/s 751 mmHg 50%
    13:00 +18°C° 0 mm 2 m/s 751 mmHg 52%
    14:00 +19°C° 0 mm 2 m/s 751 mmHg 54%
    15:00 +19°C° 0 mm 2 m/s 750 mmHg 59%
    16:00 +19°C° 0 mm 2 m/s 750 mmHg 63%
    17:00 +18°C° 0 mm 2 m/s 750 mmHg 68%
    18:00 +17°C° 0 mm 2 m/s 750 mmHg 73%
    19:00 +15°C° 0 mm 2 m/s 750 mmHg 77%
    20:00 +13°C° 0 mm 3 m/s 750 mmHg 82%
    21:00 +13°C° 0 mm 2 m/s 750 mmHg 85%
    22:00 +13°C° 0 mm 2 m/s 750 mmHg 88%
    23:00 +12°C° 0 mm 2 m/s 750 mmHg 91%

    30 Août, Vendredi

    Heure Température Précipitation Vent Pression Humidité
    00:00 +12°C° 0 mm 2 m/s 750 mmHg 92%
    01:00 +12°C° 0 mm 1 m/s 750 mmHg 93%
    02:00 +12°C° 0 mm 1 m/s 750 mmHg 94%
    03:00 +12°C° 0 mm 1 m/s 750 mmHg 94%
    04:00 +12°C° 0 mm 1 m/s 750 mmHg 94%
    05:00 +10°C° 0 mm 0 m/s 750 mmHg 95%
    06:00 +12°C° 0 mm 0 m/s 750 mmHg 91%
    07:00 +14°C° 0 mm 1 m/s 750 mmHg 87%
    08:00 +15°C° 0 mm 1 m/s 750 mmHg 83%
    09:00 +16°C° 0 mm 1 m/s 750 mmHg 82%
    10:00 +16°C° 0 mm 1 m/s 750 mmHg 80%
    11:00 +18°C° 0 mm 1 m/s 750 mmHg 79%
    12:00 +18°C° 0.3 mm 1 m/s 750 mmHg 79%
    13:00 +18°C° 0.3 mm 1 m/s 749 mmHg 80%
    14:00 +19°C° 0.3 mm 1 m/s 749 mmHg 81%
    15:00 +18°C° 0.1 mm 1 m/s 749 mmHg 83%
    16:00 +18°C° 0.1 mm 1 m/s 749 mmHg 84%
    17:00 +18°C° 0.1 mm 1 m/s 749 mmHg 85%
    18:00 +16°C° 0 mm 1 m/s 749 mmHg 87%
    19:00 +15°C° 0 mm 1 m/s 749 mmHg 89%
    20:00 +14°C° 0 mm 1 m/s 749 mmHg 91%
    21:00 +14°C° 0 mm 1 m/s 749 mmHg 92%
    22:00 +14°C° 0 mm 1 m/s 749 mmHg 92%
    23:00 +13°C° 0 mm 1 m/s 749 mmHg 92%

    31 Août, Samedi

    Heure Température Précipitation Vent Pression Humidité
    00:00 +13°C° 0 mm 1 m/s 750 mmHg 92%
    01:00 +13°C° 0 mm 1 m/s 750 mmHg 92%
    02:00 +13°C° 0 mm 1 m/s 750 mmHg 93%
    03:00 +13°C° 0 mm 1 m/s 750 mmHg 93%
    04:00 +12°C° 0 mm 1 m/s 749 mmHg 94%
    05:00 +12°C° 0 mm 1 m/s 749 mmHg 94%
    06:00 +14°C° 0 mm 1 m/s 749 mmHg 90%
    07:00 +15°C° 0 mm 1 m/s 749 mmHg 86%
    08:00 +18°C° 0 mm 1 m/s 749 mmHg 82%
    09:00 +19°C° 0 mm 1 m/s 749 mmHg 76%
    10:00 +21°C° 0 mm 1 m/s 749 mmHg 70%
    11:00 +22°C° 0 mm 1 m/s 749 mmHg 64%
    12:00 +22°C° 0 mm 1 m/s 749 mmHg 61%
    13:00 +23°C° 0 mm 2 m/s 749 mmHg 59%
    14:00 +23°C° 0 mm 2 m/s 749 mmHg 57%
    15:00 +21°C° 0 mm 2 m/s 749 mmHg 62%
    16:00 +21°C° 0 mm 2 m/s 748 mmHg 67%
    17:00 +20°C° 0 mm 2 m/s 748 mmHg 72%
    18:00 +20°C° 0 mm 1 m/s 748 mmHg 76%
    19:00 +18°C° 0 mm 1 m/s 748 mmHg 79%
    20:00 +16°C° 0 mm 1 m/s 748 mmHg 82%
    21:00 +16°C° 0 mm 1 m/s 748 mmHg 84%
    22:00 +16°C° 0 mm 1 m/s 748 mmHg 85%
    23:00 +15°C° 0 mm 1 m/s 748 mmHg 86%
    Voir plus